Deering, AK

7:57 AM AKST on December 12, 2017 (GMT -0900)
Deering (New)

Weather History for PADE - February, 2012

Change the Weather History Date:

Tuesday, February 14, 2012

  Actual Average (PAOT) Record (PAOT)
Temperature  
Mean Temperature 8 °F -  
Max Temperature 17 °F 4 °F 37 °F (2006)
Min Temperature 0 °F -9 °F -51 °F (1964)
Degree Days  
Heating Degree Days 56    
Moisture  
Dew Point 7 °F    
Average Humidity 88    
Maximum Humidity 93    
Minimum Humidity 83    
Precipitation  
Precipitation 0.00 in - - ()
Sea Level Pressure  
Sea Level Pressure 29.56 in    
Wind  
Wind Speed 4 mph (WSW)    
Max Wind Speed 9 mph    
Max Gust Speed -    
Visibility 6 miles    
Events Fog , Snow    
Averages and records for this station are not official NWS values.
T = Trace of Precipitation, MM = Missing Value Source: NWS Daily Summary

Daily Weather History Graph

Daily Weather History Graph

Search for Another Location

Airport or City:

Trip Planner

Search our weather history database for the weather conditions in past years. The results will help you decide how hot, cold, wet, or windy it might be!

Date:

Astronomy

Feb. 14, 2012 Rise Set
Actual Time 10:01 AM AKST 6:10 PM AKST
Civil Twilight 9:04 AM AKST 7:07 PM AKST
Nautical Twilight 8:04 AM AKST 8:07 PM AKST
Astronomical Twilight 7:05 AM AKST 9:07 PM AKST
Moon 5:25 AM AKST (2/14) 9:54 AM AKST (2/14)
Length of Visible Light 10h 02m
Length of Day
8h 09m
Waning Gibbous, 48% of the Moon is Illuminated
Feb 14
Waning Gibbous
Feb 21
New
Feb 29
First Quarter
Mar 8
Full
Mar 14
Last Quarter

Hourly Weather History & Observations

Time (AKST) Temp. Windchill Dew Point Humidity Pressure Visibility Wind Dir Wind Speed Gust Speed Precip Events Conditions
12:53 AM 17.1 °F 10.0 °F 14.0 °F 88% 29.42 in 10.0 mi WSW 4.6 mph - 0.00 in   Overcast
1:05 AM 17.6 °F 9.3 °F 14.0 °F 86% 29.41 in 10.0 mi WSW 5.8 mph - N/A   Overcast
1:53 AM 16.0 °F 10.4 °F 12.9 °F 88% 29.43 in 10.0 mi SW 3.5 mph - N/A   Overcast
3:04 AM 15.8 °F - 12.2 °F 86% 29.44 in 10.0 mi Calm Calm - N/A   Overcast
3:43 AM 15.8 °F - 12.2 °F 86% 29.44 in 7.0 mi Calm Calm - 0.00 in Snow Light Snow
3:53 AM 15.1 °F 9.4 °F 12.0 °F 88% 29.45 in 9.0 mi WSW 3.5 mph - 0.00 in Snow Light Snow
4:53 AM 16.0 °F 10.4 °F 12.9 °F 88% 29.45 in 10.0 mi WSW 3.5 mph - 0.00 in   Overcast
5:33 AM 15.8 °F - 12.2 °F 86% 29.46 in 10.0 mi Calm Calm - N/A   Overcast
5:53 AM 16.0 °F - 12.9 °F 88% 29.46 in 10.0 mi Calm Calm - N/A   Overcast
6:53 AM 16.0 °F - 14.0 °F 92% 29.47 in 5.0 mi Calm Calm - N/A   Overcast
7:11 AM 15.8 °F - 14.0 °F 93% 29.48 in 6.0 mi Calm Calm - N/A   Overcast
7:20 AM 15.8 °F 5.1 °F 14.0 °F 93% 29.48 in 6.0 mi WSW 8.1 mph - N/A   Overcast
7:53 AM 15.1 °F 5.2 °F 12.9 °F 91% 29.49 in 10.0 mi WSW 6.9 mph - N/A   Overcast
8:37 AM 14.0 °F 5.1 °F 10.4 °F 86% 29.50 in 10.0 mi West 5.8 mph - N/A   Overcast
8:53 AM 12.9 °F 2.6 °F 10.0 °F 88% 29.51 in 10.0 mi West 6.9 mph - N/A   Overcast
9:53 AM 12.0 °F 4.1 °F 9.0 °F 88% 29.53 in 10.0 mi West 4.6 mph - N/A   Overcast
10:11 AM 12.2 °F 2.9 °F 8.6 °F 85% 29.53 in 1.8 mi West 5.8 mph - 0.00 in Snow Light Snow
10:21 AM 12.2 °F 1.7 °F 8.6 °F 85% 29.54 in 0.8 mi West 6.9 mph - 0.01 in Snow Light Snow
10:30 AM 12.2 °F 1.7 °F 8.6 °F 85% 29.54 in 2.0 mi West 6.9 mph - 0.01 in Snow Light Snow
10:36 AM 12.2 °F 1.7 °F 8.6 °F 85% 29.54 in 7.0 mi West 6.9 mph - 0.01 in Snow Light Snow
12:11 PM 10.4 °F -0.4 °F 8.6 °F 92% 29.57 in 1.2 mi West 6.9 mph - N/A Snow Light Snow
12:12 PM 10.4 °F -0.4 °F 8.6 °F 92% 29.57 in 1.2 mi West 6.9 mph - 0.00 in Snow Light Snow
12:28 PM 10.4 °F -2.4 °F 6.8 °F 85% 29.57 in 2.0 mi West 9.2 mph - 0.00 in Snow Light Snow
12:45 PM 10.4 °F -1.5 °F 6.8 °F 85% 29.58 in 1.8 mi West 8.1 mph - 0.00 in Snow Light Snow
12:53 PM 10.9 °F -0.8 °F 7.0 °F 84% 29.59 in 4.0 mi West 8.1 mph - 0.00 in Snow Light Snow
1:05 PM 10.4 °F -2.4 °F 6.8 °F 85% 29.59 in 6.0 mi West 9.2 mph - 0.00 in Snow Light Snow
1:53 PM 10.0 °F -1.9 °F 6.1 °F 84% 29.60 in 6.0 mi West 8.1 mph - 0.00 in Snow Light Snow
4:53 PM 8.1 °F -0.5 °F 3.9 °F 83% 29.64 in 10.0 mi WSW 4.6 mph - N/A   Overcast
5:53 PM 8.1 °F 1.4 °F 3.9 °F 83% 29.65 in 10.0 mi West 3.5 mph - N/A   Overcast
6:53 PM 7.0 °F - 3.0 °F 84% 29.66 in 10.0 mi Calm Calm - N/A   Overcast
7:53 PM 7.0 °F - 3.9 °F 87% 29.68 in 10.0 mi Calm Calm - N/A   Overcast
8:53 PM 8.1 °F - 5.0 °F 87% 29.69 in 10.0 mi Calm Calm - N/A   Overcast
9:53 PM 3.0 °F -9.3 °F 1.0 °F 91% 29.69 in 5.0 mi SSW 6.9 mph - N/A   Overcast
9:57 PM 3.2 °F -9.1 °F 1.4 °F 92% 29.69 in 1.8 mi SSW 6.9 mph - N/A   Overcast
10:07 PM 1.4 °F -12.5 °F -0.4 °F 92% 29.69 in 4.0 mi SSW 8.1 mph - N/A   Overcast
10:27 PM 1.4 °F -11.3 °F -0.4 °F 92% 29.70 in 1.8 mi SSW 6.9 mph - N/A   Overcast
10:36 PM 1.4 °F -9.9 °F -0.4 °F 92% 29.70 in 0.2 mi SSW 5.8 mph - N/A Fog Light Freezing Fog
10:53 PM 1.9 °F -7.6 °F -0.9 °F 88% 29.70 in 0.5 mi SSW 4.6 mph - N/A Fog Light Freezing Fog
11:37 PM -0.4 °F -10.4 °F -2.2 °F 92% 29.70 in 1.2 mi SW 4.6 mph - N/A   Overcast
11:53 PM -0.0 °F -13.0 °F -2.9 °F 88% 29.71 in 0.5 mi SSW 6.9 mph - N/A Fog Light Freezing Fog